Beaufort, NC

2:33 AM EDT on September 23, 2017 (GMT -0400)
Smith

Weather History for KMRH - October, 2011

Change the Weather History Date:

Thursday, October 13, 2011

  Actual Average Record
Temperature  
Mean Temperature 74 °F -  
Max Temperature 79 °F 76 °F 87 °F (1990)
Min Temperature 69 °F 53 °F 40 °F (1988)
Cooling Degree Days 8    
Growing Degree Days 24 (Base 50)    
Moisture  
Dew Point 70 °F    
Average Humidity 87    
Maximum Humidity 100    
Minimum Humidity 76    
Precipitation  
Precipitation 0.04 in - - ()
Sea Level Pressure  
Sea Level Pressure 29.74 in    
Wind  
Wind Speed 8 mph (South)    
Max Wind Speed 15 mph    
Max Gust Speed 23 mph    
Visibility 10 miles    
Events Rain , Thunderstorm    
Averages and records for this station are not official NWS values.
T = Trace of Precipitation, MM = Missing Value Source: NWS Daily Summary

Daily Weather History Graph

Daily Weather History Graph

Search for Another Location

Airport or City:

Trip Planner

Search our weather history database for the weather conditions in past years. The results will help you decide how hot, cold, wet, or windy it might be!

Date:

Astronomy

Oct. 13, 2011 Rise Set
Actual Time 7:10 AM EDT 6:34 PM EDT
Civil Twilight 6:45 AM EDT 7:00 PM EDT
Nautical Twilight 6:15 AM EDT 7:29 PM EDT
Astronomical Twilight 5:46 AM EDT 7:58 PM EDT
Moon 7:16 PM EDT (10/13) 8:34 AM EDT (10/13)
Length of Visible Light 12h 15m
Length of Day
11h 24m
Full, 98% of the Moon is Illuminated
Oct 13
Full
Oct 19
Last Quarter
Oct 26
New
Nov 2
First Quarter
Nov 10
Full

Hourly Weather History & Observations

Time (EDT) Temp. Dew Point Humidity Pressure Visibility Wind Dir Wind Speed Gust Speed Precip Events Conditions
12:37 AM 73.4 °F 66.2 °F 78% 29.80 in 10.0 mi South 13.8 mph - 0.00 in   Mostly Cloudy
12:56 AM 73.0 °F 68.0 °F 84% 29.80 in 10.0 mi South 12.7 mph - 0.00 in   Scattered Clouds
1:56 AM 73.0 °F 70.0 °F 90% 29.79 in 10.0 mi South 5.8 mph - N/A   Clear
2:56 AM 72.0 °F 70.0 °F 93% 29.79 in 10.0 mi Calm Calm - N/A   Clear
3:47 AM 69.8 °F 69.8 °F 100% 29.78 in 2.0 mi Calm Calm - N/A   Clear
3:56 AM 70.0 °F 69.1 °F 97% 29.78 in 8.0 mi SE 3.5 mph - N/A   Clear
4:56 AM 71.1 °F 70.0 °F 96% 29.78 in 10.0 mi South 3.5 mph - N/A   Mostly Cloudy
5:56 AM 72.0 °F 71.1 °F 97% 29.78 in 10.0 mi South 5.8 mph - N/A   Mostly Cloudy
6:56 AM 72.0 °F 70.0 °F 93% 29.77 in 10.0 mi SSE 5.8 mph - N/A   Scattered Clouds
7:56 AM 72.0 °F 71.1 °F 97% 29.78 in 10.0 mi SSE 4.6 mph - N/A   Clear
8:56 AM 75.9 °F 73.0 °F 91% 29.78 in 10.0 mi South 4.6 mph - N/A   Mostly Cloudy
9:56 AM 78.1 °F 72.0 °F 81% 29.78 in 10.0 mi SSW 8.1 mph - N/A   Clear
10:56 AM 77.0 °F 71.1 °F 82% 29.77 in 10.0 mi South 8.1 mph - N/A   Scattered Clouds
11:56 AM 77.0 °F 71.1 °F 82% 29.76 in 10.0 mi South 6.9 mph - 0.00 in Rain Light Rain
12:41 PM 75.2 °F 71.6 °F 89% 29.74 in 10.0 mi SSE 5.8 mph - 0.00 in Rain , Thunderstorm Light Rain
12:56 PM 73.9 °F 72.0 °F 93% 29.73 in 8.0 mi SSE 8.1 mph - 0.02 in Rain , Thunderstorm Light Rain
1:15 PM 75.2 °F 71.6 °F 89% 29.73 in 10.0 mi SSE 6.9 mph - 0.01 in Rain Light Rain
1:56 PM 78.1 °F 72.0 °F 81% 29.70 in 10.0 mi South 9.2 mph - 0.01 in   Partly Cloudy
2:56 PM 78.1 °F 70.0 °F 76% 29.69 in 10.0 mi South 11.5 mph - N/A   Partly Cloudy
3:56 PM 77.0 °F 71.1 °F 82% 29.68 in 10.0 mi South 11.5 mph - N/A   Scattered Clouds
4:56 PM 75.0 °F 70.0 °F 84% 29.67 in 10.0 mi South 13.8 mph 23.0 mph 0.01 in   Overcast
5:56 PM 75.9 °F 69.1 °F 79% 29.66 in 10.0 mi South 11.5 mph - N/A   Mostly Cloudy
6:56 PM 73.9 °F 71.1 °F 91% 29.67 in 10.0 mi SSW 15.0 mph - N/A   Partly Cloudy
7:56 PM 73.0 °F 70.0 °F 90% 29.69 in 10.0 mi SSW 9.2 mph - N/A   Mostly Cloudy
8:56 PM 73.9 °F 68.0 °F 82% 29.69 in 10.0 mi SSW 11.5 mph - N/A   Mostly Cloudy
9:56 PM 73.0 °F 68.0 °F 84% 29.70 in 10.0 mi SSW 11.5 mph - N/A   Partly Cloudy
10:56 PM 73.0 °F 66.9 °F 81% 29.68 in 10.0 mi SSW 9.2 mph - N/A   Mostly Cloudy
11:56 PM 72.0 °F 68.0 °F 87% 29.68 in 10.0 mi SW 8.1 mph - N/A   Clear